Regional Weather Roundup
Issued by NWS

Home | Current Version | Previous Version | Graphics & Text | Print | Product List | Glossary On
Versions: 1 2 3 4 5 6 7 8 9 10 11 12 13 14 15 16 17 18 19 20 21 22 23 24 25 26 27 28 29 30 31 32 33 34 35 36 37 38 39 40 41 42 43 44 45 46 47 48 49 50
000
ASUS43 KMKX 291211
RWRWI

WISCONSIN REGIONAL WEATHER ROUNDUP
NATIONAL WEATHER SERVICE MILWAUKEE/SULLIVAN WI
700 AM CDT FRI JUL 29 2016

NOTE: "FAIR" INDICATES FEW OR NO CLOUDS BELOW 12,000 FEET WITH NO
SIGNIFICANT WEATHER AND/OR OBSTRUCTIONS TO VISIBILITY.

WIZ001-002-006>008-014>016-023>028-291300-
NORTHWEST WISCONSIN

CITY           SKY/WX    TMP DP  RH WIND       PRES   REMARKS
SUPERIOR ARPT  FOG       52  52 100 CALM      30.12S VSB 3/4
6HR MIN TEMP:  45; 6HR MAX TEMP:  56;

ASHLAND        SUNNY     51  50  96 W3        30.12S
6HR MIN TEMP:  43; 6HR MAX TEMP:  51;

HAYWARD        FOG       50  49  96 NE8       30.11S VSB 1/2
6HR MIN TEMP:  47; 6HR MAX TEMP:  54;

SIREN          NOT AVBL
CUMBERLAND     SUNNY     54  52  94 N5        30.09S
RICE LAKE      SUNNY     56  54  92 N6        30.10S
6HR MIN TEMP:  54; 6HR MAX TEMP:  58;

CHETEK         SUNNY     59  53  81 NE5       30.08S
6HR MIN TEMP:  57; 6HR MAX TEMP:  63;

LADYSMITH      SUNNY     55  52  92 CALM      30.10R
6HR MIN TEMP:  53; 6HR MAX TEMP:  60;

EAU CLAIRE     PTSUNNY   61  55  81 N6        30.05R
6HR MIN TEMP:  61; 6HR MAX TEMP:  65;

MENOMONIE      PTSUNNY   62  56  81 CALM      30.06R
6HR MIN TEMP:  62; 6HR MAX TEMP:  65;

NEW RICHMOND   SUNNY     58  56  91 NE9       30.08R
6HR MIN TEMP:  56; 6HR MAX TEMP:  61;

OSCEOLA        SUNNY     56  56 100 CALM      30.11S
6HR MIN TEMP:  54; 6HR MAX TEMP:  62;

$$

WIZ003>005-009-010-017-018-291300-
NORTH CENTRAL WISCONSIN

CITY           SKY/WX    TMP DP  RH WIND       PRES   REMARKS
MANITOWISH WTR SUNNY     54  54 100 N8        30.11S
6HR MIN TEMP:  44; 6HR MAX TEMP:  54;

ARBOR VITAE    SUNNY     57  54  90 NE5       30.10S
6HR MIN TEMP:  46; 6HR MAX TEMP:  57;

WOODRUFF       SUNNY     57  54  90 NE5       30.10S
6HR MIN TEMP:  46; 6HR MAX TEMP:  57;

RHINELANDER    SUNNY     53  50  89 N3        30.09S
6HR MIN TEMP:  48; 6HR MAX TEMP:  55;

EAGLE RIVER    SUNNY     51  51 100 N3        30.10R
6HR MIN TEMP:  44; 6HR MAX TEMP:  51;

LAND O LAKES   SUNNY     52  52 100 N5        30.11S
6HR MIN TEMP:  43; 6HR MAX TEMP:  52; 6HR PCP:  0.06;

PHILLIPS       SUNNY     52  51  97 NE7       30.09S
6HR MIN TEMP:  47; 6HR MAX TEMP:  53;

TOMAHAWK       SUNNY     51  50  97 CALM      30.09R
6HR MIN TEMP:  45; 6HR MAX TEMP:  54;

MEDFORD        SUNNY     55  54  97 NE3       30.07R
6HR MIN TEMP:  52; 6HR MAX TEMP:  60;

MERRILL        SUNNY     54  51  92 CALM      30.08R
6HR MIN TEMP:  51; 6HR MAX TEMP:  60;

$$

WIZ029-030-035-036-043>047-291300-
CENTRAL WISCONSIN

CITY           SKY/WX    TMP DP  RH WIND       PRES   REMARKS
WAUSAU         PTSUNNY   59  52  77 N3        30.04R
6HR MIN TEMP:  57; 6HR MAX TEMP:  63;

MOSINEE        MOSUNNY   59  54  82 NE8       30.06R
MARSHFIELD     SUNNY     60  54  80 NE9       30.04R
6HR MIN TEMP:  59; 6HR MAX TEMP:  64;

STEVENS POINT  CLOUDY    56  53  88 NE8       30.05R
6HR MIN TEMP:  55; 6HR MAX TEMP:  60;

WAUPACA        CLOUDY    62  58  88 N3        30.03S
6HR MIN TEMP:  61; 6HR MAX TEMP:  66;

WAUTOMA        CLOUDY    60  57  89 MISG      30.02S
6HR MIN TEMP:  58; 6HR MAX TEMP:  66; 6HR PCP:  1.11;

WISC RAPIDS    MOSUNNY   60  52  74 VRB7      30.05R
6HR MIN TEMP:  60; 6HR MAX TEMP:  65;

CAMP DOUGLAS   CLOUDY    61  56  82 NE6       30.01S
6HR MIN TEMP:  61; 6HR MAX TEMP:  65;

$$

WIZ011>013-019>022-031-037>040-048>050-291300-
NORTHEAST WISCONSIN

CITY           SKY/WX    TMP DP  RH WIND       PRES   REMARKS
ANTIGO         MOSUNNY   56  52  88 NE5       30.07R
6HR MIN TEMP:  54; 6HR MAX TEMP:  59;

SHAWANO        CLOUDY    62  56  82 NE5       30.05R
6HR MIN TEMP:  60; 6HR MAX TEMP:  64;

OCONTO         CLOUDY    59  59 100 CALM      30.04R
6HR MIN TEMP:  58; 6HR MAX TEMP:  60;

STURGEON BAY   CLOUDY    65  63  93 E3        30.04S
6HR MIN TEMP:  63; 6HR MAX TEMP:  65;

GREEN BAY      CLOUDY    61  60  97 N8        30.02S
6HR MIN TEMP:  60; 6HR MAX TEMP:  61; 6HR PCP:  0.01;

MANITOWOC      CLOUDY    66  63  90 MISG      30.01R
6HR MIN TEMP:  62; 6HR MAX TEMP:  66;

APPLETON       CLOUDY    61  55  82 NE9       30.01R
CLINTONVILLE   CLOUDY    59  54  82 NE6       30.04R
OSHKOSH        CLOUDY    65  62  90 NE13      30.00S
6HR MIN TEMP:  64; 6HR MAX TEMP:  67; 6HR PCP:  0.02;

$$

WIZ032>034-041-042-053>061-291300-
SOUTHWEST WISCONSIN

CITY           SKY/WX    TMP DP  RH WIND       PRES   REMARKS
LA CROSSE      CLOUDY    65  58  78 N7        30.00R
6HR MIN TEMP:  65; 6HR MAX TEMP:  66;

SPARTA         CLOUDY    62  55  78 NE7       30.02R
6HR MIN TEMP:  62; 6HR MAX TEMP:  64;

VIROQUA        CLOUDY    62  61  97 NE6       30.01R
6HR MIN TEMP:  62; 6HR MAX TEMP:  64;

BOSCOBEL       CLOUDY    67  62  84 NE6       29.97R
6HR MIN TEMP:  67; 6HR MAX TEMP:  70; 6HR PCP: TRACE;

PRAIRIE DU CHI CLOUDY    65  62  87 NE3       29.96S
6HR MIN TEMP:  65; 6HR MAX TEMP:  67;

PLATTEVILLE    CLOUDY    66  65  96 NE9       29.97R
6HR MIN TEMP:  66; 6HR MAX TEMP:  69;

$$

WIZ056-057-062-063-064-067-068-291300-
SOUTH CENTRAL WISCONSIN

CITY           SKY/WX    TMP DP  RH WIND       PRES   REMARKS
REEDSBURG      CLOUDY    61  60  96 NE6       29.99S
6HR MIN TEMP:  61; 6HR MAX TEMP:  66; 6HR PCP:  0.77;

BARABOO/DELLS  CLOUDY    60  57  91 NE7       30.00S
6HR MIN TEMP:  60; 6HR MAX TEMP:  65; 6HR PCP:  0.02;

LONE ROCK      CLOUDY    65  60  84 NE8       29.99R
6HR MIN TEMP:  65; 6HR MAX TEMP:  69; 6HR PCP: TRACE;

MINERAL POINT  CLOUDY    64  63  94 NE6       29.97S
MADISON        CLOUDY    64  62  93 NE7       29.97R
6HR MIN TEMP:  63; 6HR MAX TEMP:  67; 6HR PCP:  0.08;

MIDDLETON      CLOUDY    65  63  92 NE8       29.99R
6HR MIN TEMP:  65; 6HR MAX TEMP:  68;

WATERTOWN      CLOUDY    64  64 100 NE5       29.97R
6HR MIN TEMP:  64; 6HR MAX TEMP:  65;

MONROE         CLOUDY    64  63  94 NE7       29.96S
JANESVILLE     CLOUDY    68  66  94 NE6       29.95R
$$

WIZ051-052-058>065-066-070>072-291300-
SOUTHEAST WISCONSIN

CITY           SKY/WX    TMP DP  RH WIND       PRES   REMARKS
MILWAUKEE      CLOUDY    68  64  87 NE8       29.96R
6HR MIN TEMP:  67; 6HR MAX TEMP:  69;

WAUKESHA       CLOUDY    64  63  94 NE9       29.98S
MILWAUKEE/TIMM CLOUDY    66  61  82 NE9       29.98R
RACINE         CLOUDY    72  65  78 E7        29.97R
6HR MIN TEMP:  67; 6HR MAX TEMP:  72;

BURLINGTON     CLOUDY    68  66  93 NE5       29.96R
6HR MIN TEMP:  65; 6HR MAX TEMP:  68;

KENOSHA        CLOUDY    70  67  90 N3        29.95R
6HR MIN TEMP:  67; 6HR MAX TEMP:  70;

FOND DU LAC    CLOUDY    65  62  90 NE8       29.99F
6HR MIN TEMP:  64; 6HR MAX TEMP:  65; 6HR PCP:  0.31;

SHEBOYGAN      CLOUDY    67  64  90 NE10      29.99S
6HR MIN TEMP:  63; 6HR MAX TEMP:  66; 6HR PCP:  0.07;

WEST BEND      CLOUDY    64  63  94 NE7       29.98F
JUNEAU         CLOUDY    63  61  94 N8        30.00R
6HR MIN TEMP:  62; 6HR MAX TEMP:  64;

$$

LSZ147-162-291300-
LAKE SUPERIOR

STATION/POSITION TIME  TEMP    WIND        PRES    WAVE
                       AIR SEA DIR/SP/G            HT/PER
                 (UTC) (F)     (DEG/KT/KT) (MB)    (FT/S)
W MID LAKE BUOY  1150   63 60   20/  2/  4 1019.2R   0
DEVILS ISLAND    1200   62      10/  6/  6 1019.8S
SAXON HARBOR     1100   50     200/  5/  6 1019.3R
$$

LMZ867-665-643>646-291300-
LAKE MICHIGAN

STATION/POSITION TIME  TEMP    WIND        PRES    WAVE
                       AIR SEA DIR/SP/G            HT/PER
                 (UTC) (FC1F1C2F2C3F3C4F4C5F5C6F6C7F7C8M1C9M2Ca!


USA.gov is the U.S. government's official web portal to all federal, state and local government web resources and services.